GFSCGP_prec_cloud_159.txt.gz
Cloud_Cover
79 46 100 63 5 5 5 5 9 14 3 97 18 100 24 17 99 5 0 5 0 0 0 0 0 15 17 7 84 11 5 5 2 0 72 100 100 100 100 94 100 58 99 70
54 100 100 100 57 3 5 4 5 5 47 41 56 100 100 17 100 48 5 5 1 5 5 0 0 5 5 12 47 5 5 5 0 0 0 2 71 92 56 71 34 88 100 100
66 19 100 100 82 63 5 3 5 6 26 6 99 100 100 61 65 62 29 5 5 5 5 0 0 3 0 11 14 18 5 1 0 0 0 0 0 15 52 97 91 81 78 98
99 100 100 94 100 100 9 31 5 2 2 5 42 100 100 88 6 32 96 6 5 5 5 2 0 4 0 4 7 5 5 0 0 0 0 0 0 0 0 0 45 59 72 100
100 100 61 69 100 100 5 17 5 0 5 5 100 99 100 94 2 5 28 91 13 5 5 5 0 0 2 2 2 18 6 0 0 0 0 0 0 2 32 70 100 100 100 100
100 100 100 100 100 100 100 100 99 60 43 0 100 100 100 100 3 4 99 41 11 5 5 5 10 29 33 36 44 92 95 98 10 0 0 0 0 88 97 75 100 100 100 100
39 26 90 100 100 100 100 100 97 100 73 16 100 100 100 100 70 4 58 76 58 26 33 99 100 32 26 24 68 100 100 100 87 56 64 76 62 100 64 90 100 100 100 100
0 0 1 99 100 100 100 100 84 100 60 46 100 100 100 100 100 8 100 100 57 55 96 100 75 20 24 36 70 100 100 100 100 100 100 100 100 99 73 79 100 100 92 96
5 0 0 0 100 54 95 100 100 100 100 40 100 100 100 100 100 100 100 11 36 60 100 91 46 20 15 23 47 98 100 100 100 100 100 100 100 100 83 100 100 100 100 68
75 68 0 0 8 46 6 100 100 100 100 100 98 100 100 100 100 100 100 100 97 75 97 64 46 27 10 10 44 52 100 100 100 64 84 90 92 67 57 72 100 100 100 100
90 80 9 87 65 5 5 99 100 100 100 87 86 100 100 100 100 100 100 100 100 71 100 71 44 32 14 19 15 57 97 100 100 100 98 100 98 99 87 100 100 100 84 100
100 93 35 26 100 100 100 62 100 100 55 79 100 100 100 100 100 100 100 100 88 58 100 53 48 71 44 28 25 80 100 100 100 100 100 100 100 100 98 99 100 100 100 100
69 100 100 66 78 100 100 81 100 100 100 95 100 100 100 100 100 100 100 100 67 16 98 63 100 100 31 15 22 91 73 100 100 100 71 93 99 100 100 98 100 100 100 100
100 75 97 100 100 100 100 100 100 100 100 56 71 100 100 100 100 100 100 100 74 5 47 97 100 100 27 22 6 36 87 100 100 100 99 100 100 100 93 87 100 100 100 100
33 78 78 5 69 100 98 100 100 100 100 100 97 100 100 100 100 100 100 100 100 90 97 100 100 100 43 36 20 96 100 100 100 100 100 100 100 97 90 100 100 100 100 100
79 66 10 5 0 24 100 99 100 100 100 100 97 90 100 100 100 100 100 100 100 100 100 100 100 100 99 53 10 100 100 100 100 57 99 100 100 97 74 94 99 100 100 100
91 100 96 19 0 4 93 100 100 100 100 100 97 97 100 100 100 100 100 100 100 100 98 81 63 100 99 51 39 74 99 100 100 100 100 100 100 100 99 99 100 100 100 100
77 89 100 66 11 49 0 87 100 98 98 100 100 100 100 100 100 100 100 100 100 59 33 14 78 99 100 89 21 10 100 100 100 100 100 100 100 100 100 100 100 100 100 100
25 100 100 99 30 1 0 0 0 6 76 96 100 100 98 100 100 100 87 100 100 100 53 51 98 99 95 100 68 96 100 100 100 100 100 100 100 100 100 100 100 100 100 100
100 100 100 100 100 76 0 0 0 0 3 100 99 100 100 100 100 100 100 100 100 100 71 100 100 100 100 100 100 100 99 100 100 100 100 100 100 100 100 100 100 100 100 100
100 100 100 100 100 14 0 0 0 0 45 100 100 100 100 100 100 100 100 100 100 100 74 100 100 100 100 100 100 100 100 94 100 100 100 100 100 100 43 43 64 27 45 23
100 100 100 100 100 58 59 1 0 0 0 100 100 100 100 100 100 100 100 100 100 100 15 100 100 100 100 100 100 100 100 100 100 100 100 100 100 100 5 5 5 5 5 0
38 33 100 100 100 26 7 2 0 0 0 0 0 5 71 100 100 100 100 100 100 100 8 100 100 100 100 95 100 100 100 100 100 100 100 100 100 72 19 4 19 20 5 5
100 100 100 94 8 5 5 5 0 0 0 0 0 0 5 100 100 100 100 100 100 88 11 100 100 100 100 100 100 100 100 100 100 100 100 100 100 20 2 5 5 11 5 5
93 99 100 24 6 5 0 2 0 0 0 0 0 0 5 100 100 100 100 100 100 100 72 100 100 100 100 100 98 100 100 100 100 100 100 100 100 20 0 5 5 5 5 5
100 100 100 100 100 22 0 0 0 0 0 0 0 0 0 59 100 100 100 100 100 100 100 95 100 100 100 100 100 100 100 100 100 100 100 100 100 31 0 1 5 37 5 4

GFSCGP_prec_cloud_162.txt.gz
Cloud_Cover
5 5 98 100 100 100 94 56 90 86 0 5 5 85 5 5 100 100 23 34 5 1 0 0 0 0 0 0 0 0 0 5 16 51 5 45 93 90 47 100 19 100 91 96
100 50 100 100 100 100 100 77 90 100 1 4 4 43 25 4 61 87 76 87 78 5 0 0 0 0 0 0 0 5 5 5 5 5 5 1 0 54 63 94 15 11 40 93
100 100 100 100 100 100 100 45 30 9 9 0 0 5 5 5 80 27 96 78 100 64 5 0 3 4 0 0 1 5 2 5 5 5 4 5 0 10 89 100 18 0 37 89
100 100 100 100 100 100 100 92 5 5 5 0 0 2 9 98 49 6 93 99 100 99 9 5 2 5 0 0 0 0 0 5 3 5 5 0 0 0 0 5 8 0 0 62
100 98 100 92 100 99 75 68 49 7 5 5 4 0 5 100 95 12 59 97 100 100 94 5 5 5 5 0 0 0 0 4 3 5 5 0 0 0 0 0 0 13 22 61
82 37 20 6 33 10 55 65 96 100 58 3 40 5 0 84 100 9 94 100 100 100 100 89 10 5 5 4 1 32 26 22 1 0 0 0 0 1 0 0 62 97 100 100
26 5 5 4 0 0 0 81 100 98 100 51 76 75 17 100 100 95 9 100 99 98 99 56 60 5 5 5 83 96 100 97 36 0 23 42 34 68 72 87 100 100 100 100
96 82 72 0 1 0 0 0 35 100 92 100 100 59 100 100 100 100 5 89 100 100 100 52 45 5 5 18 100 100 97 85 96 98 100 100 100 100 88 84 85 97 98 100
38 0 13 0 0 8 50 22 3 70 100 66 96 52 100 100 100 100 100 58 100 100 100 100 52 6 6 43 100 100 100 99 86 100 91 94 100 98 67 44 38 33 42 90
62 6 0 3 5 13 97 84 28 83 91 99 68 96 100 100 100 100 100 100 100 100 100 100 81 19 30 58 100 100 100 100 97 100 100 48 81 54 55 55 71 86 100 100
100 100 6 4 4 31 100 100 100 77 27 99 98 74 100 100 100 100 100 100 100 100 100 99 49 46 51 82 100 96 88 93 78 99 100 100 100 84 90 80 73 46 76 100
52 88 70 86 88 96 6 99 95 11 6 56 100 100 100 100 100 100 100 100 100 100 100 100 31 89 91 100 100 94 99 86 62 100 100 100 100 100 100 98 99 78 85 97
5 3 26 5 55 79 96 100 100 100 100 96 100 96 100 100 100 100 100 100 100 100 90 100 92 87 33 68 96 99 100 100 96 100 93 85 93 98 100 100 100 100 100 100
23 55 68 25 33 100 100 100 100 100 100 62 88 100 100 100 100 100 100 100 100 100 100 100 100 100 91 66 44 94 95 100 100 100 100 96 100 100 100 99 100 100 100 100
12 49 11 61 89 74 100 100 100 100 100 100 99 94 100 100 100 100 100 100 100 100 100 100 99 82 43 49 54 96 100 100 100 94 100 97 100 99 99 97 100 100 100 100
7 54 30 5 9 97 80 98 100 100 100 100 100 90 100 100 100 100 100 100 100 100 100 74 100 100 38 83 68 38 100 100 100 100 100 95 100 100 96 100 100 100 100 100
99 100 32 14 8 5 4 2 22 100 100 100 100 99 100 100 100 100 100 100 100 100 100 100 100 100 100 100 100 100 99 95 100 100 100 99 90 95 100 100 100 100 100 100
100 100 99 54 97 100 6 5 27 65 99 99 100 100 100 100 100 100 100 100 100 100 100 100 100 100 100 100 100 100 91 87 100 100 100 100 100 98 96 100 100 100 100 100
92 98 100 96 100 89 100 0 0 94 100 100 100 100 100 100 100 100 100 100 100 100 100 100 100 100 100 100 65 84 100 100 100 100 100 100 100 100 100 100 100 100 100 100
100 100 100 29 100 100 87 38 0 0 72 98 100 100 100 100 100 100 100 100 100 100 100 100 100 100 100 89 99 100 100 100 100 100 100 100 100 100 100 100 100 100 100 100
100 100 100 47 99 71 5 0 0 3 45 98 100 100 100 100 100 100 100 100 100 100 100 100 100 100 100 100 100 99 100 100 100 100 100 100 100 100 100 100 100 100 100 99
100 100 100 100 100 78 12 76 2 1 0 100 100 100 100 100 100 100 100 100 100 100 100 100 100 98 100 100 98 95 100 100 95 100 100 100 100 82 14 32 59 74 55 27
100 100 100 100 45 91 100 95 0 0 0 4 99 96 100 100 100 100 100 100 100 100 100 100 100 100 100 100 100 100 100 100 100 100 100 100 100 15 0 4 3 7 2 0
99 100 98 80 74 100 100 27 0 0 0 0 0 6 3 100 100 100 100 100 100 100 100 98 100 100 100 100 100 100 100 100 100 100 100 100 90 5 1 0 0 0 3 4
100 88 89 78 88 100 34 5 5 0 0 0 0 0 0 95 100 100 100 100 100 100 100 61 99 100 100 100 100 100 100 100 100 100 100 100 99 9 5 0 4 4 0 5
100 100 94 89 100 100 62 17 5 4 1 0 0 0 0 1 91 100 100 100 100 100 99 74 100 100 100 100 100 100 100 100 100 100 100 100 91 5 5 4 5 5 5 5

GFSCGP_prec_cloud_165.txt.gz
Cloud_Cover
88 100 100 100 100 100 100 100 100 100 94 5 100 94 72 42 5 5 5 5 5 5 7 97 5 2 0 0 0 0 0 0 67 100 100 100 100 100 77 64 82 19 1 8
100 100 100 100 100 100 100 100 100 100 100 36 99 100 73 59 5 69 5 5 36 54 9 52 50 13 5 0 0 0 0 0 0 0 0 1 3 31 11 28 95 51 22 35
100 100 100 100 100 100 100 100 100 100 100 82 100 100 100 99 7 5 5 7 6 100 62 9 94 28 6 3 0 0 0 0 0 0 0 3 5 4 12 11 100 84 15 31
100 100 100 91 100 100 15 100 100 100 100 48 44 11 100 99 98 2 5 23 15 51 100 33 97 38 37 5 5 1 0 0 0 0 0 0 1 3 22 28 22 9 26 13
100 88 37 82 100 100 30 77 31 23 81 94 97 66 54 5 94 92 0 3 5 16 100 55 99 98 5 5 5 5 1 0 0 0 0 0 0 4 30 43 17 10 22 38
5 1 0 2 63 100 100 100 100 100 68 4 2 100 0 10 25 100 5 3 0 45 100 100 100 100 89 56 5 5 2 0 0 0 0 0 4 16 13 24 20 21 88 94
0 0 0 4 5 88 100 100 100 80 91 35 89 49 0 56 5 100 100 11 17 99 100 100 100 100 100 100 35 14 11 2 3 0 0 7 14 13 30 23 29 100 94 99
74 3 15 95 26 69 98 100 100 95 26 83 91 12 20 90 70 94 100 9 76 100 100 100 100 100 100 100 45 45 96 54 38 63 87 90 59 87 98 88 99 100 100 98
100 35 68 93 75 24 13 100 36 100 92 86 15 25 5 100 100 100 100 100 100 100 100 100 100 100 100 100 100 100 100 100 100 100 83 94 100 100 100 100 100 100 88 100
100 69 31 100 90 26 87 57 100 100 97 68 19 90 6 47 89 100 100 100 100 100 100 100 100 100 100 100 100 100 100 55 46 45 31 52 98 100 68 77 70 46 94 99
5 61 3 100 100 100 100 100 93 34 100 43 95 98 100 94 100 100 100 100 100 100 100 100 100 100 100 100 100 100 100 100 85 93 66 94 100 100 78 31 42 57 66 100
4 27 4 5 11 64 73 100 88 100 87 30 5 100 100 66 100 100 100 100 100 100 100 100 100 97 100 100 100 85 82 100 84 100 85 100 100 93 53 91 97 100 100 98
79 21 60 3 1 0 97 100 100 100 100 99 100 62 47 9 100 100 100 100 100 100 100 100 100 100 100 100 100 100 100 100 85 78 51 85 100 100 92 99 100 98 94 68
79 100 100 89 67 53 98 100 100 100 100 100 100 98 100 82 60 100 100 100 100 100 100 100 100 100 100 100 100 100 100 99 82 53 92 100 86 96 100 100 84 77 100 100
97 97 100 100 100 50 96 99 100 92 100 99 100 100 100 100 72 100 100 100 100 100 100 100 100 100 100 100 100 100 100 100 86 88 92 97 100 100 100 99 70 100 100 100
100 63 100 100 72 100 72 24 100 100 100 96 100 100 100 100 93 100 100 100 100 100 100 100 100 100 100 100 100 100 100 90 99 100 96 70 95 100 96 98 100 100 100 100
78 58 100 95 96 100 100 12 2 91 100 91 76 100 100 96 100 100 100 100 100 100 100 100 100 100 100 100 100 100 100 100 100 98 98 59 100 100 84 100 100 100 100 100
100 100 97 77 100 100 18 45 5 8 99 32 56 100 100 100 100 100 100 100 100 100 100 100 100 100 100 100 100 100 100 78 100 92 86 64 100 98 87 100 100 100 100 100
100 100 100 100 100 90 42 3 99 98 83 35 100 100 100 100 100 100 100 100 100 100 100 100 100 100 100 100 100 100 100 100 100 100 99 100 100 100 100 100 100 100 100 100
100 98 100 100 100 94 62 100 30 100 98 47 90 100 100 100 100 100 100 100 100 100 100 100 100 100 100 100 100 100 100 100 100 100 100 100 100 100 100 100 100 100 100 100
100 100 100 100 100 26 100 100 100 95 75 24 93 100 84 94 100 100 100 100 100 100 100 100 100 100 100 100 100 100 100 100 100 100 100 100 100 100 100 100 100 100 100 100
100 100 100 100 100 78 100 100 100 100 53 82 99 100 79 100 100 100 100 100 100 100 100 100 100 100 100 100 100 100 100 100 100 100 100 100 100 100 100 100 100 100 100 98
99 100 99 97 100 100 100 100 100 66 20 1 41 100 97 95 100 100 100 100 100 100 100 100 100 100 100 100 100 100 100 100 100 100 100 100 100 79 84 100 100 100 47 25
100 81 63 99 89 100 100 100 100 65 5 1 0 15 100 92 100 100 100 100 100 100 100 100 100 100 100 100 100 100 100 100 100 100 100 100 100 34 76 76 56 46 25 0
100 90 86 83 100 100 100 100 100 59 2 1 0 0 37 6 99 88 100 100 100 100 100 100 100 100 100 100 100 100 100 100 100 100 100 100 96 79 68 33 5 4 0 0
100 66 100 95 100 100 100 100 100 17 5 5 1 0 0 2 61 95 100 100 100 100 100 100 100 100 100 100 100 100 100 100 100 100 100 100 100 94 64 7 5 5 2 3

GFSCGP_prec_cloud_168.txt.gz
Cloud_Cover
1 0 21 5 5 12 95 100 100 100 100 100 100 100 100 100 92 94 100 100 5 4 4 5 4 5 43 39 0 0 0 0 3 14 100 100 100 100 100 100 100 100 96 90
0 0 6 100 97 61 56 100 92 19 100 100 100 100 100 100 100 88 100 100 100 12 5 5 5 5 32 25 11 5 0 0 0 0 0 0 0 0 3 1 48 74 29 2
5 82 100 100 100 100 100 100 98 81 66 15 35 5 5 90 100 100 100 100 100 48 5 2 4 23 82 13 81 82 4 1 0 0 0 0 0 0 0 0 1 0 4 5
25 48 76 87 9 2 0 54 5 2 27 38 100 43 20 100 100 100 100 100 99 100 96 29 3 5 22 8 86 100 20 5 0 0 0 0 0 0 0 0 0 2 2 8
82 2 0 4 1 5 14 5 1 2 83 93 96 100 99 100 100 100 100 100 100 100 100 100 4 17 100 5 100 100 97 5 0 0 0 0 0 0 0 31 11 6 11 41
1 0 1 5 5 65 86 2 4 89 4 5 0 88 32 100 100 100 100 46 100 100 100 100 1 36 100 28 100 100 100 26 5 3 0 0 0 0 0 23 0 4 18 1
4 0 20 100 98 86 39 33 64 59 88 28 1 12 0 8 58 99 100 22 82 100 100 100 11 24 100 69 87 100 100 72 6 5 5 0 0 0 0 0 3 0 34 99
85 0 85 74 100 92 99 100 100 100 8 2 22 18 5 46 31 7 81 96 2 100 100 100 89 97 100 100 99 100 100 100 57 36 5 0 0 0 0 0 0 11 95 100
100 10 5 100 100 100 100 100 100 100 59 73 3 0 58 100 20 5 2 0 26 100 100 100 100 100 100 100 100 100 100 100 90 58 100 100 69 31 5 72 92 100 98 100
100 68 67 100 100 100 100 100 100 100 100 100 34 7 0 48 1 0 0 0 2 76 100 100 100 100 100 100 100 100 100 100 100 100 97 80 84 73 92 100 88 74 37 39
100 100 39 100 100 100 100 100 100 100 100 99 22 4 70 100 99 2 1 0 13 57 100 100 100 100 100 100 100 100 100 100 100 62 100 42 97 86 97 96 74 91 84 100
100 42 0 2 13 59 91 14 30 99 40 100 99 14 10 82 100 75 100 90 86 100 100 100 100 100 100 100 100 100 100 100 100 99 100 100 100 100 85 43 68 100 98 97
99 10 12 1 0 0 1 59 100 100 100 79 99 36 98 98 98 100 49 54 94 100 100 100 100 100 100 100 100 100 100 100 100 96 84 95 99 100 100 95 89 60 100 97
4 4 5 92 47 0 83 100 100 100 99 80 37 16 98 100 100 96 100 93 100 100 100 100 100 100 100 100 100 100 100 100 100 99 100 39 98 54 92 61 24 98 63 100
100 91 64 39 81 63 50 48 100 89 61 99 2 80 100 100 100 100 100 100 100 100 100 100 100 100 100 100 100 100 100 100 100 100 100 100 99 69 93 30 51 100 100 100
7 10 76 72 47 5 94 6 35 100 96 100 36 93 100 100 100 100 100 100 100 100 100 100 100 100 100 100 100 100 100 100 100 100 100 100 100 100 96 91 99 100 100 100
5 5 5 13 35 31 16 0 1 5 78 55 5 74 100 100 100 100 99 100 100 100 100 100 100 100 100 100 100 100 100 100 100 100 100 100 99 100 100 97 100 100 100 100
7 58 93 85 16 86 0 0 17 90 34 6 67 100 100 100 100 100 100 100 100 100 100 100 100 100 100 100 100 100 100 100 100 100 100 100 100 100 100 100 100 100 100 100
20 5 96 100 54 3 84 74 19 99 3 31 58 86 100 100 100 100 100 100 100 100 100 100 100 100 100 100 100 100 100 100 100 100 100 100 100 100 100 100 100 100 100 100
100 100 100 100 100 86 96 99 31 95 55 86 100 22 100 100 100 100 100 100 100 100 100 100 100 100 100 100 100 100 100 100 100 100 100 100 100 100 100 100 100 100 100 100
76 94 98 100 100 39 92 100 100 100 100 100 82 100 100 100 100 100 100 100 100 100 100 100 100 100 100 100 100 100 100 100 100 100 100 100 100 100 100 100 100 100 100 100
89 46 100 100 100 84 99 100 100 53 100 80 100 98 100 100 100 100 100 100 100 100 100 100 100 100 100 100 100 100 100 100 100 100 100 100 100 100 100 100 100 100 100 84
14 78 90 100 100 100 100 100 100 82 100 99 54 94 94 100 100 100 100 100 100 100 100 100 100 100 100 100 100 100 100 100 100 100 100 100 100 100 100 100 100 100 100 100
28 89 100 73 93 100 100 100 100 100 64 99 72 0 66 100 100 100 100 100 100 100 100 100 100 100 100 100 100 100 100 100 100 100 100 100 100 91 100 100 100 100 84 9
91 100 47 67 92 74 100 100 100 100 100 100 36 32 100 100 100 100 100 100 100 100 100 100 100 100 100 100 100 100 100 100 100 100 100 100 100 29 100 100 100 81 10 5
99 100 67 61 95 89 100 100 100 98 59 66 3 2 90 100 100 100 58 100 100 100 100 100 100 100 100 100 100 100 100 100 100 100 100 100 100 94 100 93 93 48 22 5

GFSCGP_prec_cloud_171.txt.gz
Cloud_Cover
4 1 5 5 5 5 5 5 5 5 5 0 0 2 7 50 100 100 91 100 100 100 100 100 58 5 5 5 0 5 5 74 32 0 2 6 100 100 97 100 100 100 100 100
0 1 5 5 32 17 5 5 23 6 44 17 3 0 0 4 5 34 100 100 98 100 100 100 100 96 93 25 6 2 5 23 95 4 1 2 0 0 8 3 38 5 0 2
0 5 3 4 6 90 20 5 5 0 1 2 0 0 2 66 46 97 100 100 100 84 100 100 100 100 100 30 67 1 5 5 100 48 7 0 0 0 0 1 0 0 0 0
4 2 1 5 5 10 5 5 5 4 2 0 1 1 22 99 79 96 42 96 100 100 100 100 100 100 100 100 11 5 70 5 98 100 63 1 0 0 0 0 0 0 0 8
5 5 9 5 2 42 2 6 8 5 5 0 14 83 6 0 0 98 100 9 100 100 100 100 100 100 100 100 83 5 100 98 74 83 40 29 1 0 0 0 0 0 4 69
3 25 80 67 10 66 86 99 100 73 86 28 36 100 0 0 0 2 100 100 100 100 100 100 100 100 100 100 100 10 41 43 100 58 13 51 5 0 0 0 0 5 37 89
4 5 91 100 70 99 100 100 100 100 100 36 8 96 0 0 2 1 6 99 100 100 100 100 100 100 100 100 100 5 5 47 100 34 60 79 41 5 0 0 9 1 0 12
0 2 97 100 100 100 100 100 100 100 100 22 18 24 0 100 86 5 0 10 95 100 100 100 100 100 100 100 100 5 24 52 100 100 94 79 67 29 4 0 0 0 0 0
5 0 39 78 100 100 100 100 100 100 100 100 47 37 98 97 23 7 0 0 85 100 100 100 100 100 100 100 90 5 5 99 100 100 100 100 100 39 5 4 1 41 8 44
38 57 5 27 100 100 100 100 100 100 100 96 100 100 100 100 83 47 4 4 91 100 100 100 100 23 100 100 100 96 99 100 100 100 100 100 100 57 33 99 100 100 100 100
30 66 39 100 100 100 100 100 100 92 100 98 40 46 100 100 95 62 99 11 26 60 22 24 92 100 100 100 100 100 100 100 100 100 100 100 100 100 100 100 100 100 62 31
100 99 67 100 13 82 100 4 86 100 91 100 100 99 100 100 78 88 87 92 92 100 52 13 12 96 100 100 100 100 100 100 100 100 100 100 100 100 97 30 29 40 63 91
98 91 11 0 0 3 50 81 98 100 100 100 99 97 72 82 62 100 100 100 100 100 95 100 81 100 100 100 100 100 100 100 100 100 100 100 100 100 100 100 100 100 100 100
36 19 7 5 4 1 3 86 100 100 100 72 94 28 5 82 43 100 100 100 100 100 100 100 100 100 100 100 100 100 100 100 100 100 100 100 100 100 100 100 100 100 100 98
38 8 6 5 2 0 6 5 55 77 64 84 38 80 0 0 0 58 100 100 100 100 100 100 100 100 100 100 100 100 100 100 100 100 100 100 100 100 95 87 82 100 100 99
0 0 3 0 0 0 5 0 0 1 99 100 83 2 84 36 5 96 100 100 100 100 100 100 100 100 100 100 100 100 100 100 100 100 100 100 100 100 100 100 100 100 100 100
0 0 2 4 0 4 5 2 0 0 0 0 35 3 0 0 5 83 100 100 100 100 100 100 100 100 100 100 100 100 100 100 100 100 100 100 100 100 100 100 100 100 100 100
0 2 91 55 12 84 18 5 44 64 4 4 3 2 2 4 100 100 100 100 100 100 100 100 100 100 100 100 100 100 100 100 100 100 100 100 100 100 100 100 100 100 100 100
5 64 97 98 47 0 100 37 97 100 0 40 79 65 6 45 100 100 100 100 100 100 100 100 100 100 100 100 100 100 100 100 100 100 100 100 100 100 100 100 100 100 100 100
4 10 99 100 100 62 98 82 99 13 98 100 83 50 24 11 100 100 100 100 100 100 100 100 100 100 100 100 100 100 100 100 100 100 100 100 100 100 100 100 100 100 100 100
53 100 60 45 100 24 98 100 100 60 100 100 89 100 97 95 96 98 100 100 100 100 100 100 100 100 100 100 100 100 100 100 100 100 100 100 100 100 100 100 100 100 100 100
4 100 86 48 90 55 100 100 100 100 100 100 91 97 100 100 100 100 100 100 100 100 100 100 100 100 100 100 100 100 100 100 100 100 100 100 100 100 100 100 100 100 100 97
3 4 86 98 91 79 93 100 100 100 100 100 100 94 98 100 100 100 99 100 100 100 100 100 100 100 100 100 100 100 100 100 100 100 100 100 100 100 100 100 100 100 100 41
0 4 46 50 99 18 8 88 100 100 90 100 94 100 94 100 100 100 100 98 100 100 100 100 100 100 100 100 100 100 100 100 100 100 100 100 100 100 100 100 100 100 100 98
1 2 5 2 16 22 4 94 94 100 94 98 77 42 100 100 100 100 100 100 100 100 100 100 100 100 100 100 100 100 100 100 100 100 100 100 100 100 100 100 100 100 100 37
0 0 1 4 5 14 5 62 94 97 100 100 5 5 2 100 100 100 100 100 100 100 100 100 100 100 100 100 100 100 100 100 100 100 100 100 100 100 100 100 100 100 99 78

GFSCGP_prec_cloud_174.txt.gz
Cloud_Cover
0 0 1 0 3 1 0 2 5 7 13 5 5 0 0 96 32 5 5 4 4 4 6 69 100 100 100 56 100 100 100 100 92 0 2 5 6 1 2 5 26 100 100 100
0 0 1 0 5 5 4 5 12 2 5 5 0 1 0 0 0 4 0 5 38 42 100 100 100 100 100 100 100 100 100 100 100 5 0 1 5 5 5 5 5 7 91 85
1 4 5 3 0 0 0 2 2 5 10 0 2 0 0 1 1 0 0 2 31 100 94 100 100 100 100 100 100 100 100 100 100 63 8 12 5 8 0 1 0 0 0 0
0 5 5 5 4 3 0 5 5 5 5 0 4 1 0 10 83 80 95 5 5 22 100 100 100 100 100 100 100 100 100 100 100 100 75 5 5 53 5 0 0 0 0 0
5 5 5 4 2 5 2 5 38 7 5 0 2 73 0 14 100 100 100 100 99 78 100 100 100 100 100 100 100 100 100 100 100 100 77 8 5 59 66 5 0 0 0 0
4 5 2 0 11 85 87 78 100 100 66 5 2 98 0 4 42 100 100 98 90 74 77 93 100 100 100 100 100 100 100 100 100 100 100 100 78 68 93 8 2 2 9 60
93 53 58 34 12 100 100 100 100 100 100 39 20 73 91 95 37 44 100 100 67 0 0 0 99 100 100 100 100 100 100 22 100 100 100 100 84 94 100 82 15 26 29 11
21 94 71 68 96 69 100 100 100 100 100 100 100 22 5 100 100 80 2 81 100 7 1 0 69 100 100 98 100 100 100 60 100 100 100 79 100 100 100 99 14 5 1 8
18 5 5 5 5 90 92 99 100 77 17 63 98 100 100 100 100 100 96 100 100 49 7 0 3 100 100 100 100 100 100 100 100 100 100 27 100 100 100 100 52 5 5 7
48 53 98 10 76 16 42 93 100 100 100 77 5 66 34 94 100 27 69 100 100 38 2 0 50 85 100 100 100 100 100 100 100 100 95 20 100 100 100 100 70 27 14 82
99 100 100 100 74 100 100 100 100 100 100 100 21 16 100 98 100 100 100 100 98 86 68 96 1 5 100 100 100 100 100 100 100 99 68 11 100 100 100 100 100 100 100 100
89 15 100 100 79 99 100 97 67 73 100 58 100 19 99 100 100 99 100 100 100 100 100 100 100 88 95 100 100 100 100 100 100 78 82 55 100 100 100 100 100 85 33 59
100 97 100 100 97 22 100 73 90 100 100 80 83 16 90 100 100 100 65 100 100 100 100 100 100 93 22 100 100 100 100 100 100 100 100 100 100 100 100 100 84 100 100 100
100 92 100 100 70 78 61 6 15 94 100 92 59 4 0 46 100 73 59 100 100 100 100 100 100 99 91 100 100 100 100 100 100 100 100 100 100 100 100 100 100 100 100 78
93 100 100 95 100 58 4 1 0 2 53 97 6 46 0 4 5 79 100 100 100 100 100 100 100 99 100 100 100 100 100 100 100 100 100 100 100 100 100 100 100 100 100 100
100 100 44 100 67 4 0 0 0 0 0 0 72 8 0 0 22 3 5 84 24 100 100 99 100 100 100 91 100 100 100 100 100 100 100 100 100 100 100 100 100 100 100 100
100 39 100 100 8 0 4 4 19 5 0 0 0 0 0 0 19 6 5 7 44 100 99 100 100 89 100 100 100 100 100 100 100 100 100 100 100 100 100 100 100 100 100 100
92 32 12 41 5 82 53 94 29 59 2 82 3 3 0 0 0 37 92 13 100 100 100 100 100 100 100 100 100 100 100 100 100 100 100 100 100 100 100 100 100 100 100 100
8 5 5 76 72 1 91 21 38 97 74 74 88 84 5 0 2 0 76 100 100 100 100 100 100 100 100 100 100 100 100 100 100 100 100 100 100 100 100 100 100 100 100 100
0 19 56 100 95 51 4 100 100 73 100 100 100 80 26 100 34 100 100 100 100 100 100 100 100 100 100 100 100 100 100 100 100 100 100 100 100 100 100 100 100 100 100 100
95 75 57 95 98 5 3 93 99 99 100 100 100 100 100 21 5 49 69 100 100 100 100 100 100 100 100 100 100 100 100 100 100 100 100 100 100 100 100 100 100 100 100 100
0 9 87 100 100 70 21 44 16 48 100 100 86 96 100 100 100 52 100 100 100 100 100 100 100 100 100 100 100 100 100 100 100 100 100 100 100 100 100 100 100 100 100 100
0 0 4 6 5 5 36 10 6 98 98 100 98 100 100 100 100 100 100 100 100 100 100 100 100 100 100 100 100 100 100 100 100 100 100 100 100 100 100 100 100 100 100 100
0 0 5 3 0 15 5 0 37 92 90 97 100 32 62 100 100 100 100 100 100 100 100 100 100 100 100 100 100 100 100 100 100 100 100 100 100 100 100 100 100 100 77 59
0 0 0 0 0 10 0 0 35 17 84 12 100 23 1 84 100 100 100 100 100 100 100 100 100 100 100 100 100 100 100 100 100 100 100 100 100 100 100 100 100 100 100 100
1 0 3 0 0 0 2 0 1 5 5 5 32 14 5 97 100 100 100 100 100 100 100 100 100 100 100 100 100 100 100 100 100 100 100 100 100 100 100 100 100 100 100 100

GFSCGP_prec_cloud_177.txt.gz
Cloud_Cover
4 0 0 0 0 0 0 0 0 0 1 2 40 5 0 4 57 100 85 5 4 4 5 5 4 5 5 66 93 47 100 100 100 95 72 43 5 21 9 9 5 0 4 5
0 0 5 4 4 1 0 5 18 5 5 4 5 0 5 4 4 2 2 1 80 54 6 79 100 100 32 9 95 72 100 100 100 100 5 5 63 25 6 11 2 24 14 54
5 41 76 5 5 5 5 3 2 3 0 5 5 1 12 13 0 4 5 0 65 100 100 100 100 100 100 100 100 100 100 100 100 100 99 64 56 94 24 20 9 5 43 85
79 43 65 54 52 70 98 34 5 5 5 1 4 8 95 6 3 100 1 4 5 90 100 100 100 100 100 100 100 100 100 100 100 100 100 51 87 14 6 14 5 47 26 2
100 100 64 68 100 97 97 44 5 5 5 4 3 67 0 0 1 95 100 57 100 100 88 92 99 100 100 92 100 100 100 100 100 100 100 100 93 14 5 5 6 15 54 46
100 99 61 5 8 63 100 21 5 43 15 10 2 70 0 0 2 3 100 100 100 100 100 100 100 85 75 44 98 100 100 100 100 100 100 100 100 67 54 17 45 36 99 66
100 100 100 97 99 100 100 91 89 17 8 4 0 97 0 0 5 3 100 100 100 100 100 100 100 100 100 100 100 94 100 100 100 100 100 100 100 100 26 76 99 100 100 94
100 100 100 100 100 100 91 71 100 74 92 5 0 17 5 35 93 88 67 100 100 100 100 100 100 25 4 14 100 100 100 100 100 100 100 100 100 100 100 31 44 100 100 100
23 87 66 80 100 100 100 100 100 100 100 37 0 0 0 5 92 100 100 100 100 100 100 100 84 17 14 15 80 100 100 100 100 100 100 100 100 100 100 13 18 100 100 100
93 80 34 100 100 97 55 95 100 100 100 98 4 2 0 24 100 100 100 100 100 100 100 100 100 100 4 15 97 100 100 100 100 100 100 100 100 100 74 9 32 100 100 100
99 62 49 100 100 100 94 85 19 42 100 100 50 1 96 79 35 100 100 100 100 100 100 100 100 100 26 0 100 100 100 100 100 100 100 100 100 100 100 6 97 100 100 100
100 100 100 100 100 100 100 100 100 100 94 68 100 14 36 100 100 100 100 100 100 100 100 100 100 100 100 66 84 100 100 100 100 100 100 100 92 100 100 27 99 100 100 100
100 100 100 100 100 100 100 100 100 100 87 57 79 1 5 4 4 38 66 100 100 100 100 97 100 100 100 86 98 100 100 100 100 100 100 98 100 100 94 79 100 100 100 100
100 100 100 100 100 100 100 97 45 79 66 5 4 1 0 0 0 20 27 66 94 100 98 100 46 100 100 100 100 100 100 100 100 100 100 100 100 100 100 100 100 100 100 100
100 100 100 100 100 100 100 100 100 59 4 8 0 0 0 0 0 0 59 98 87 75 100 100 74 99 100 100 100 100 100 100 100 100 100 100 100 100 100 100 100 100 100 100
100 100 100 100 99 100 100 82 2 0 0 0 4 4 0 0 0 0 0 77 100 100 96 42 76 100 80 100 100 100 100 100 100 100 100 100 100 100 100 100 100 100 100 100
100 100 100 94 100 83 96 4 0 0 1 10 50 3 5 2 1 0 0 18 99 100 100 100 80 100 100 100 100 100 100 100 100 100 100 100 100 100 100 100 100 100 100 100
100 100 38 80 56 88 97 0 0 0 26 27 69 87 80 58 18 1 0 0 51 100 100 100 100 100 100 100 97 100 100 100 100 100 100 100 100 100 100 100 100 100 100 100
100 93 14 17 66 4 7 0 0 4 19 40 100 100 100 71 0 0 0 0 22 5 7 56 100 100 100 100 100 100 100 100 100 100 100 100 100 100 100 100 100 100 100 100
99 11 5 93 97 16 0 0 0 3 49 100 100 100 100 100 64 96 100 21 4 5 80 67 100 100 100 100 100 100 100 100 100 100 100 100 100 100 100 100 100 100 100 100
49 47 12 66 100 8 0 0 4 5 83 100 100 99 100 100 100 91 62 58 98 52 100 100 100 100 100 100 100 100 100 100 100 100 100 100 100 100 100 100 100 100 100 100
31 84 71 67 100 62 0 52 4 4 100 100 100 100 100 100 100 100 100 100 94 100 100 100 100 100 100 100 100 100 100 100 100 100 100 100 100 100 100 100 100 100 100 100
4 0 3 7 2 0 6 30 5 10 100 100 100 100 100 100 100 100 100 100 100 100 100 100 100 100 100 100 100 100 100 100 100 100 100 100 100 100 100 100 100 100 100 100
3 1 5 1 0 0 0 0 5 1 96 100 100 60 100 100 100 100 100 100 100 100 100 100 100 100 100 100 100 100 100 100 100 100 100 100 100 100 100 100 100 100 100 100
0 0 4 4 0 0 0 0 0 0 10 100 95 5 85 100 100 100 100 100 100 100 100 100 100 100 100 100 100 100 100 100 100 100 100 100 100 100 100 100 100 100 97 61
2 0 2 0 0 0 0 0 0 0 0 10 84 5 5 100 100 100 100 100 100 100 100 100 100 100 100 100 100 100 100 100 100 100 100 100 100 100 100 100 100 100 90 100

GFSCGP_prec_cloud_180.txt.gz
Cloud_Cover
5 8 38 5 5 5 5 2 1 5 46 5 9 39 100 78 34 5 3 0 5 5 1 65 100 100 47 12 5 5 67 35 14 100 84 38 22 66 100 79 57 12 5 0
4 8 5 5 4 5 21 98 100 96 100 98 100 23 62 100 100 32 3 0 2 3 4 0 2 5 5 5 9 2 9 100 100 100 100 100 37 39 99 67 100 54 8 5
37 6 5 30 1 5 9 40 12 41 39 94 47 96 100 100 22 7 5 0 0 0 0 1 2 28 20 56 92 36 36 98 99 100 100 100 100 100 29 61 100 51 5 5
5 6 21 92 19 16 97 99 94 59 7 34 99 95 100 100 22 5 3 1 0 0 2 60 92 100 99 81 100 97 78 100 34 100 100 100 100 100 95 100 100 45 8 6
18 62 56 5 74 5 6 5 12 17 4 1 9 5 5 64 5 1 0 14 5 1 8 100 100 100 100 100 100 100 100 100 94 100 88 100 100 100 100 100 100 13 10 6
5 6 12 58 22 5 15 50 61 87 22 4 4 5 0 2 10 3 0 9 100 88 60 100 100 100 100 100 100 100 82 100 100 95 98 97 100 100 100 100 100 94 19 23
5 5 5 75 8 77 64 95 48 38 72 5 2 5 7 7 14 3 9 97 100 100 72 100 100 100 100 100 100 100 98 79 100 100 99 100 100 100 91 100 100 100 33 56
50 77 100 11 5 96 95 70 100 92 29 4 2 5 12 100 99 100 100 37 100 100 100 100 100 100 100 100 100 100 100 100 100 56 80 100 100 100 100 100 100 99 98 81
30 47 11 5 97 100 100 100 77 63 100 98 4 1 46 6 95 100 100 100 18 100 100 100 100 100 100 100 100 96 66 96 100 96 100 100 100 100 100 100 100 99 98 100
60 86 26 24 59 100 100 100 99 81 100 100 35 56 45 52 1 3 90 76 4 95 100 100 100 100 100 100 80 32 23 56 100 100 100 100 100 100 100 100 100 100 92 100
83 47 40 46 71 100 100 100 100 86 100 88 100 8 15 54 5 5 70 30 7 91 99 100 100 100 100 100 81 22 22 28 48 100 100 100 100 100 100 100 100 96 98 97
92 100 95 100 96 87 100 100 100 100 100 100 100 20 100 100 33 5 5 5 5 60 100 100 100 100 100 100 100 100 71 19 84 100 100 100 100 100 100 100 100 100 100 100
100 100 100 100 100 100 100 100 100 100 100 98 100 13 99 98 0 1 3 0 0 5 69 99 100 100 100 100 100 100 88 100 100 100 100 100 100 100 100 100 100 100 100 100
100 100 100 100 100 89 100 98 100 100 99 90 100 72 74 6 0 0 0 0 0 0 4 27 100 100 100 100 100 100 100 100 100 100 100 100 100 100 100 100 98 100 100 100
100 100 100 100 100 100 100 99 100 100 86 18 77 58 10 0 0 0 0 0 0 0 4 52 100 100 100 96 100 65 100 100 100 100 100 100 100 100 100 100 100 100 100 100
100 100 100 100 100 100 100 100 100 100 100 23 1 0 5 5 5 4 0 0 0 0 0 19 90 100 84 96 71 72 100 100 100 100 100 100 100 100 100 100 100 100 100 100
100 100 100 100 100 100 100 100 98 66 4 5 5 13 12 38 91 50 36 18 5 0 0 86 100 21 4 13 38 97 100 100 100 100 100 100 100 100 100 100 100 100 100 100
100 100 100 100 100 100 100 100 3 2 0 5 53 98 84 100 70 80 73 48 1 0 0 95 7 37 77 26 84 100 100 100 100 100 100 100 100 100 100 100 100 100 100 100
100 100 100 100 100 100 54 9 0 0 1 3 100 100 68 99 91 96 85 54 0 0 0 72 65 100 78 49 100 82 100 100 100 100 100 100 100 100 100 100 100 100 100 100
100 100 100 100 65 14 0 0 0 0 26 6 100 21 5 77 87 64 100 82 98 75 100 100 100 100 90 100 100 100 100 100 100 100 100 100 100 100 100 100 100 100 100 100
100 100 100 84 82 4 0 0 1 20 0 5 12 14 5 100 100 100 100 100 100 100 100 100 90 98 100 100 100 100 100 100 100 100 100 100 100 100 100 100 100 100 100 100
92 100 97 59 95 71 0 0 24 2 0 57 100 58 48 99 100 100 100 100 100 100 100 100 100 100 100 100 100 100 100 100 100 100 100 100 100 100 100 100 100 100 100 100
99 100 27 5 2 0 0 0 2 8 0 51 88 94 100 100 100 100 100 100 100 97 100 100 100 100 100 100 100 100 100 100 100 100 100 100 100 100 100 100 100 100 100 100
48 73 5 5 0 0 0 0 0 1 5 83 90 56 88 100 100 100 100 100 100 100 100 100 100 100 100 100 100 100 100 100 100 100 100 100 100 100 100 100 100 100 100 100
24 5 27 11 0 0 0 0 0 0 5 30 77 18 4 100 100 60 44 100 100 100 100 100 100 100 100 100 100 100 100 100 100 100 100 100 100 100 100 100 100 100 100 100
5 38 25 0 0 0 0 0 0 0 0 0 2 28 3 5 42 96 100 100 100 100 100 100 100 100 100 100 100 100 100 100 100 100 100 100 100 100 100 100 100 100 100 100

GFSCGP_prec_cloud_183.txt.gz
Cloud_Cover
0 0 0 0 0 0 0 0 0 0 5 0 5 24 100 35 5 1 0 5 5 57 100 100 80 5 0 0 1 5 0 2 45 100 92 100 100 33 59 100 100 100 100 100
0 0 0 0 0 0 0 0 0 0 0 0 6 66 99 25 0 0 0 2 5 5 90 87 58 28 1 0 0 0 3 4 9 7 36 78 86 20 13 100 100 100 100 100
5 5 3 0 0 0 2 1 2 0 0 0 0 4 69 20 0 2 5 8 5 10 70 28 43 34 29 0 0 0 5 50 67 63 38 90 36 68 82 100 100 100 100 98
5 5 5 1 4 4 1 1 0 0 0 1 0 0 2 0 0 4 65 100 70 6 1 1 2 36 79 41 64 66 5 68 100 73 100 100 76 5 10 80 100 100 100 100
43 5 5 5 1 0 0 5 5 0 4 4 19 10 0 0 0 0 5 10 42 6 4 0 0 42 100 99 12 41 94 100 100 100 100 100 98 100 99 58 91 100 100 100
5 4 0 4 3 4 1 5 15 82 62 5 5 0 0 9 55 1 2 5 5 74 58 0 0 0 82 100 56 100 100 100 100 100 75 95 99 93 74 92 91 58 98 100
2 0 0 0 5 4 5 5 38 89 20 2 0 4 0 68 1 1 1 2 95 88 11 3 6 14 64 100 100 100 100 100 100 100 100 100 100 71 98 91 97 93 54 91
0 0 1 1 5 37 48 99 96 100 29 7 51 49 4 27 87 52 0 5 5 5 0 0 3 100 100 100 100 100 100 100 100 100 100 100 100 100 99 99 100 99 100 86
5 4 1 4 5 14 12 42 89 100 100 100 2 32 98 100 100 99 87 74 5 5 5 1 17 35 100 100 100 100 100 100 100 100 100 100 99 100 100 100 100 100 100 100
47 88 5 5 22 62 14 66 74 100 100 99 25 16 82 100 100 100 17 90 5 5 2 0 55 8 100 100 96 100 100 100 100 100 100 100 100 100 100 100 100 100 100 100
22 38 14 42 57 100 100 100 100 100 100 99 76 25 100 100 100 100 45 72 90 5 5 0 51 71 100 100 100 100 100 65 96 100 100 89 100 100 100 100 100 100 100 100
92 97 82 92 85 97 100 100 100 100 100 100 100 6 100 100 100 100 7 5 30 98 44 0 0 69 100 100 100 100 100 90 56 41 30 100 100 100 100 100 100 100 100 100
86 88 100 100 97 100 100 100 100 100 100 100 97 50 97 100 94 4 16 56 90 93 100 5 0 28 30 100 100 100 42 100 100 96 90 100 100 100 100 100 100 100 100 100
100 100 100 100 100 100 100 80 100 100 100 100 100 100 100 100 11 5 5 2 0 0 3 0 0 0 5 68 100 100 54 86 100 100 100 100 100 100 100 100 100 100 100 100
100 100 100 100 100 100 100 100 100 100 100 100 98 100 100 12 11 5 11 25 37 4 0 0 0 0 5 41 99 100 100 100 96 100 100 100 100 100 100 100 100 100 100 100
100 100 100 100 54 85 100 100 100 100 97 100 100 54 5 5 5 28 95 100 100 100 5 0 0 0 4 30 96 100 100 100 100 100 100 100 100 100 100 100 100 100 100 87
100 100 100 94 98 100 100 100 100 100 100 100 77 6 5 5 48 53 76 100 100 96 1 0 0 0 4 93 100 50 84 100 100 100 100 100 100 100 100 100 100 100 100 100
100 100 100 100 100 100 100 100 100 100 100 1 0 0 70 34 74 84 100 100 100 41 0 0 0 3 66 88 89 18 18 100 100 100 100 100 100 100 100 100 100 100 100 100
100 100 100 100 100 100 100 100 100 96 29 0 1 38 94 21 100 100 92 100 100 68 33 68 91 99 100 100 84 50 99 100 100 100 100 100 100 100 100 100 100 100 100 100
100 100 100 100 100 100 100 100 70 2 0 0 2 89 49 18 11 74 100 100 100 100 100 94 98 77 100 95 100 99 100 100 100 100 100 100 100 100 100 100 100 100 100 100
100 100 100 100 100 99 42 1 0 4 0 0 0 30 100 12 90 100 100 100 100 100 100 94 24 16 100 100 100 100 100 100 100 100 100 100 100 100 100 100 100 100 100 100
100 100 100 100 100 57 2 0 0 0 0 0 0 36 40 31 100 100 100 100 100 100 100 96 5 46 100 100 100 100 100 100 100 100 100 100 100 100 100 100 100 100 100 100
100 100 100 100 34 4 0 0 0 0 0 0 0 93 23 10 100 100 100 98 69 92 82 11 27 10 100 100 100 100 100 100 100 100 100 100 100 100 100 100 100 100 100 100
100 100 100 98 5 0 0 0 0 0 0 0 0 41 5 5 63 97 100 98 98 100 100 100 100 100 100 100 100 100 100 100 100 100 100 100 100 100 100 100 100 100 100 100
100 100 100 54 4 0 0 0 0 0 0 0 1 5 5 5 32 53 99 61 100 100 100 100 100 100 100 100 100 100 100 100 100 100 100 100 100 100 100 100 100 100 100 100
100 99 34 33 5 1 0 0 0 0 0 0 0 3 5 5 5 5 79 100 100 100 100 100 100 100 100 100 100 100 100 100 100 100 100 100 100 100 100 100 100 100 100 100